Content
SEND FEEDBACK

Daily
Averages
Monthly
Summary
United States of America

MANY, LOUISIANA


Home > North America > United States > Louisiana
Elevation: 243 feet     Latitude: 31 34N     Longitude: 093 29W

WEATHER
 
SELECT A DAY
Number of Records: 102,718;   Date Range: 3/2/05 - 7/22/14
 
SHARE

PRINT THIS DATA

[ ← Previous Day ]
WEATHER ALMANAC - FEBRUARY 13, 2013
[ Next Day → ]
[ °C ]   °F
Weather ElementAverageHighLow
Temperature47.5 °F55 °F (2:56 pm)36 °F (11:56 pm)
Dewpoint40.2 °F48.9 °F (12:56 am)34 °F (11:56 pm)
Humidity77.1 %93 % (7:56 pm)51 % (2:56 pm)
Barometer30.01 in30.09 in (9:56 pm)29.90 in (12:56 am)
Wind Speed4.2 mph9.2 mph (9:56 am)
Weather ElementAverage
Visibility9.4 mi
Wind DirectionENE (73.8 °)

Weather ElementTotal
Precipitation---
Heating Degree Days19.5 (Base 65)
Averaged from 32 records on February 13, 2013
WEATHER CONDITIONS BREAKOUT
WIND DIRECTION BREAKOUT
WEATHER BY HOUR - FEBRUARY 13, 2013
[ °C ]   °F
Local TimeTemperatureDewpointHumidityBarometerVisibilityWind DirectionWind SpeedGust SpeedPrecipitationEventsConditions
12:56 AM51.1 °F48.9 °F92 %29.90 in9.0 miVariable3.5 mphOvercast
1:05 AM51.8 °F48.2 °F88 %29.91 in9.0 miWest (260°)4.6 mphOvercast
1:14 AM51.8 °F48.2 °F88 %29.91 in9.0 miCalmOvercast
1:41 AM51.8 °F46.4 °F82 %29.92 in10.0 miVariable6.9 mphMostly Cloudy
1:56 AM50.0 °F46.0 °F86 %29.93 in10.0 miVariable5.8 mphPartly Cloudy
2:38 AM50.0 °F44.6 °F82 %29.93 in10.0 miVariable4.6 mphMostly Cloudy
2:56 AM48.9 °F44.1 °F83 %29.94 in10.0 miVariable4.6 mphMostly Cloudy
3:46 AM48.2 °F44.6 °F87 %29.96 in10.0 miVariable3.5 mphOvercast
3:56 AM48.9 °F44.1 °F83 %29.96 in10.0 miVariable6.9 mphOvercast
4:47 AM46.4 °F39.2 °F76 %29.97 in10.0 miVariable4.6 mphOvercast
4:56 AM46.9 °F39.9 °F77 %29.97 in10.0 miVariable6.9 mphOvercast
5:56 AM46.9 °F39.0 °F74 %29.99 in10.0 miVariable5.8 mphOvercast
6:56 AM45.0 °F39.0 °F80 %30.01 in10.0 miVariable5.8 mphClear
7:36 AM44.6 °F39.2 °F81 %30.03 in10.0 miNW (320°)3.5 mphOvercast
7:43 AM44.6 °F39.2 °F81 %30.04 in10.0 miCalmOvercast
7:56 AM46.0 °F39.9 °F79 %30.05 in10.0 miCalmScattered Clouds
8:56 AM48.0 °F39.0 °F71 %30.06 in10.0 miVariable4.6 mphPartly Cloudy
9:56 AM50.0 °F37.9 °F63 %30.07 in10.0 miNorth (360°)9.2 mphMostly Cloudy
10:56 AM50.0 °F37.9 °F63 %30.07 in10.0 miNNW (330°)8.1 mphOvercast
11:56 AM48.9 °F37.9 °F66 %30.07 in10.0 miNW (320°)8.1 mphOvercast
12:56 PM52.0 °F37.0 °F57 %30.04 in10.0 miVariable5.8 mphScattered Clouds
1:56 PM52.0 °F37.0 °F57 %30.03 in10.0 miVariable4.6 mphScattered Clouds
2:56 PM55.0 °F37.0 °F51 %30.02 in10.0 miNorth (360°)5.8 mphOvercast
3:56 PM55.0 °F37.0 °F51 %30.01 in10.0 miNNE (30°)8.1 mphPartly Cloudy
4:56 PM53.1 °F37.9 °F57 %30.03 in10.0 miNNE (20°)6.9 mphClear
5:56 PM48.9 °F37.9 °F66 %30.04 in10.0 miNorth (360°)5.8 mphClear
6:56 PM44.1 °F39.0 °F82 %30.05 in10.0 miCalmClear
7:56 PM41.0 °F39.0 °F93 %30.07 in9.0 miCalmClear
8:56 PM37.9 °F36.0 °F93 %30.08 in7.0 miCalmClear
9:56 PM37.0 °F35.1 °F93 %30.09 in7.0 miCalmClear
10:56 PM37.0 °F35.1 °F93 %30.08 in7.0 miCalmClear
11:56 PM36.0 °F34.0 °F93 %30.08 in5.0 miCalmClear
Hourly data recorded from KAQV, located miles away from Many, Louisiana







STORIES FROM OUR PARTNERS